Terminal Aerodrome Forecast
Issued by NWS Chicago, IL

Home | Current Version | Previous Version | Graphics & Text | Print | Product List | Glossary On
Versions: 1 2 3 4 5 6 7 8 9 10 11 12 13 14 15 16 17 18 19 20 21 22 23 24 25 26 27 28 29 30
000
FTUS43 KLOT 220300 AAA
TAFRFD
TAF AMD
KRFD 220301Z 2203/2224 26007KT P6SM FEW080
     FM220400 28010G16KT P6SM FEW250
     FM220500 33012G17KT P6SM SCT200
     FM222200 01008G17KT P6SM FEW250=

USA.gov is the U.S. government's official web portal to all federal, state and local government web resources and services.